| time (UTC) | temp F | wind direction | speed MPH | gust MPH | rain 1hr in | rain 24hr in | rain mn in | humidity % | barometer mb |
| 20260508134033 | 63 | 103 | 2.0 | 4.0 | 0.00 | 0.00 | 0.00 | 89 | 1014.0 |
| 20260508133534 | 63 | 109 | 0.0 | 3.0 | 0.00 | 0.00 | 0.00 | 89 | 1014.0 |
| 20260508133049 | 63 | 0 | 1.0 | 4.0 | 0.00 | 0.00 | 0.00 | 89 | 1014.0 |
| 20260508132533 | 63 | 108 | 1.0 | 4.0 | 0.00 | 0.00 | 0.00 | 89 | 1014.0 |
| 20260508132033 | 63 | 133 | 2.0 | 7.0 | 0.00 | 0.00 | 0.00 | 89 | 1013.9 |
| 20260508131558 | 63 | 131 | 2.0 | 8.0 | 0.00 | 0.00 | 0.00 | 89 | 1013.7 |
| 20260508131034 | 63 | 103 | 3.0 | 8.0 | 0.00 | 0.00 | 0.00 | 89 | 1013.5 |
| 20260508130533 | 63 | 75 | 4.0 | 8.0 | 0.00 | 0.00 | 0.00 | 89 | 1013.2 |
| 20260508130050 | 63 | 91 | 3.0 | 6.0 | 0.00 | 0.00 | 0.00 | 89 | 1013.2 |
| 20260508125533 | 63 | 112 | 1.0 | 5.0 | 0.00 | 0.00 | 0.00 | 89 | 1013.2 |
| 20260508125034 | 63 | 112 | 1.0 | 5.0 | 0.00 | 0.00 | 0.00 | 89 | 1013.3 |
| 20260508124551 | 63 | 72 | 2.0 | 4.0 | 0.00 | 0.00 | 0.00 | 89 | 1013.2 |
| 20260508124034 | 63 | 80 | 3.0 | 4.0 | 0.00 | 0.00 | 0.00 | 88 | 1013.4 |
| 20260508123537 | 63 | 44 | 2.0 | 4.0 | 0.00 | 0.00 | 0.00 | 88 | 1013.4 |
| 20260508123051 | 63 | 330 | 0.0 | 2.0 | 0.00 | 0.00 | 0.00 | 88 | 1013.6 |
| 20260508122533 | 63 | 330 | 0.0 | 3.0 | 0.00 | 0.00 | 0.00 | 88 | 1013.6 |
| 20260508122035 | 63 | 330 | 0.0 | 4.0 | 0.00 | 0.00 | 0.00 | 88 | 1013.8 |
| 20260508121552 | 63 | 65 | 1.0 | 5.0 | 0.00 | 0.00 | 0.00 | 87 | 1014.0 |
| 20260508121034 | 63 | 64 | 2.0 | 5.0 | 0.00 | 0.00 | 0.00 | 87 | 1013.9 |
| 20260508120535 | 63 | 74 | 2.0 | 4.0 | 0.00 | 0.00 | 0.00 | 87 | 1013.7 |
| 20260508120056 | 63 | 350 | 1.0 | 5.0 | 0.00 | 0.00 | 0.00 | 87 | 1014.0 |
| 20260508115533 | 63 | 331 | 1.0 | 9.0 | 0.00 | 0.00 | 0.00 | 87 | 1014.1 |
| 20260508115034 | 63 | 56 | 4.0 | 9.0 | 0.00 | 0.00 | 0.00 | 87 | 1013.9 |
| 20260508114549 | 63 | 35 | 1.0 | 4.0 | 0.00 | 0.00 | 0.00 | 86 | 1013.9 |
| 20260508114033 | 63 | 73 | 2.0 | 4.0 | 0.00 | 0.00 | 0.00 | 86 | 1013.7 |
| 20260508113534 | 63 | 43 | 2.0 | 3.0 | 0.00 | 0.00 | 0.00 | 86 | 1013.9 |
| 20260508113057 | 63 | 0 | 1.0 | 3.0 | 0.00 | 0.00 | 0.00 | 86 | 1013.9 |
| 20260508112533 | 63 | 312 | 0.0 | 4.0 | 0.00 | 0.00 | 0.00 | 86 | 1014.2 |
| 20260508112033 | 63 | 0 | 1.0 | 4.0 | 0.00 | 0.00 | 0.00 | 85 | 1014.0 |
| 20260508111556 | 63 | 332 | 1.0 | 4.0 | 0.00 | 0.00 | 0.00 | 85 | 1013.9 |
| 20260508111035 | 63 | 332 | 2.0 | 6.0 | 0.00 | 0.00 | 0.00 | 85 | 1013.7 |
| 20260508110536 | 63 | 276 | 1.0 | 7.0 | 0.00 | 0.00 | 0.00 | 85 | 1013.8 |
| 20260508110058 | 63 | 301 | 3.0 | 7.0 | 0.00 | 0.00 | 0.00 | 85 | 1013.6 |
| 20260508105536 | 63 | 351 | 4.0 | 6.0 | 0.00 | 0.00 | 0.00 | 84 | 1013.7 |
| 20260508105034 | 63 | 340 | 1.0 | 6.0 | 0.00 | 0.00 | 0.00 | 84 | 1013.9 |
| 20260508104546 | 63 | 325 | 2.0 | 6.0 | 0.00 | 0.00 | 0.00 | 84 | 1013.7 |
| 20260508104033 | 63 | 12 | 3.0 | 6.0 | 0.00 | 0.00 | 0.00 | 84 | 1013.7 |
| 20260508103533 | 63 | 326 | 3.0 | 9.0 | 0.00 | 0.00 | 0.00 | 83 | 1013.8 |
| 20260508103055 | 63 | 345 | 2.0 | 9.0 | 0.00 | 0.00 | 0.00 | 84 | 1013.9 |
| 20260508102533 | 63 | 72 | 5.0 | 8.0 | 0.00 | 0.00 | 0.00 | 83 | 1013.4 |
| 20260508102035 | 63 | 84 | 4.0 | 7.0 | 0.00 | 0.00 | 0.00 | 83 | 1013.8 |
| 20260508101544 | 63 | 58 | 1.0 | 5.0 | 0.00 | 0.00 | 0.00 | 83 | 1014.1 |
| 20260508101035 | 63 | 12 | 1.0 | 6.0 | 0.00 | 0.00 | 0.00 | 83 | 1014.1 |
| 20260508100534 | 63 | 0 | 2.0 | 7.0 | 0.00 | 0.00 | 0.00 | 83 | 1013.9 |
| 20260508100048 | 63 | 58 | 3.0 | 7.0 | 0.00 | 0.00 | 0.00 | 83 | 1013.6 |
| 20260508095534 | 64 | 33 | 2.0 | 4.0 | 0.00 | 0.00 | 0.00 | 82 | 1013.7 |
| 20260508095033 | 64 | 0 | 1.0 | 4.0 | 0.00 | 0.00 | 0.00 | 82 | 1013.7 |
| 20260508094604 | 64 | 78 | 2.0 | 4.0 | 0.00 | 0.00 | 0.00 | 82 | 1013.6 |
| 20260508094033 | 64 | 330 | 0.0 | 2.0 | 0.00 | 0.00 | 0.00 | 81 | 1013.9 |
| 20260508093533 | 64 | 331 | 0.0 | 3.0 | 0.00 | 0.00 | 0.00 | 81 | 1014.1 |
| 20260508093046 | 64 | 331 | 0.0 | 3.0 | 0.00 | 0.00 | 0.00 | 81 | 1014.2 |
| 20260508092535 | 64 | 352 | 1.0 | 4.0 | 0.00 | 0.00 | 0.00 | 80 | 1014.1 |
| 20260508092033 | 64 | 22 | 1.0 | 5.0 | 0.00 | 0.00 | 0.00 | 80 | 1013.9 |
| 20260508091545 | 64 | 40 | 2.0 | 8.0 | 0.00 | 0.00 | 0.00 | 80 | 1013.9 |
| 20260508091033 | 64 | 29 | 2.0 | 11.0 | 0.00 | 0.00 | 0.00 | 79 | 1013.9 |
| 20260508090532 | 64 | 62 | 3.0 | 11.0 | 0.00 | 0.00 | 0.00 | 79 | 1013.7 |
| 20260508085534 | 64 | 106 | 3.0 | 7.0 | 0.00 | 0.00 | 0.00 | 78 | 1013.4 |
| 20260508085033 | 64 | 81 | 3.0 | 6.0 | 0.00 | 0.00 | 0.00 | 78 | 1013.7 |
| 20260508084548 | 64 | 16 | 3.0 | 8.0 | 0.00 | 0.00 | 0.00 | 77 | 1014.0 |
| 20260508084034 | 64 | 50 | 1.0 | 8.0 | 0.00 | 0.00 | 0.00 | 77 | 1014.0 |
| 20260508083534 | 64 | 54 | 4.0 | 8.0 | 0.00 | 0.00 | 0.00 | 77 | 1013.8 |
| 20260508083107 | 64 | 63 | 3.0 | 7.0 | 0.00 | 0.00 | 0.00 | 77 | 1014.0 |
| 20260508082608 | 64 | 45 | 2.0 | 6.0 | 0.00 | 0.00 | 0.00 | 76 | 1014.3 |
| 20260508082035 | 64 | 52 | 3.0 | 7.0 | 0.00 | 0.00 | 0.00 | 76 | 1014.1 |
| 20260508081547 | 64 | 60 | 3.0 | 7.0 | 0.00 | 0.00 | 0.00 | 76 | 1014.0 |
| 20260508081038 | 64 | 51 | 4.0 | 8.0 | 0.00 | 0.00 | 0.00 | 75 | 1014.0 |
| 20260508080535 | 64 | 45 | 3.0 | 8.0 | 0.00 | 0.00 | 0.00 | 75 | 1013.9 |
| 20260508080052 | 64 | 82 | 2.0 | 6.0 | 0.00 | 0.00 | 0.00 | 75 | 1014.0 |
| 20260508075533 | 64 | 46 | 2.0 | 6.0 | 0.00 | 0.00 | 0.00 | 75 | 1014.3 |
| 20260508075032 | 64 | 31 | 2.0 | 7.0 | 0.00 | 0.00 | 0.00 | 74 | 1014.3 |
| 20260508074553 | 64 | 51 | 3.0 | 7.0 | 0.00 | 0.00 | 0.00 | 74 | 1014.2 |
| 20260508074033 | 64 | 85 | 2.0 | 7.0 | 0.00 | 0.00 | 0.00 | 74 | 1014.3 |
| 20260508073534 | 64 | 72 | 3.0 | 7.0 | 0.00 | 0.00 | 0.00 | 74 | 1014.7 |
| 20260508073048 | 64 | 62 | 3.0 | 7.0 | 0.00 | 0.00 | 0.00 | 75 | 1014.5 |
| 20260508072533 | 65 | 70 | 2.0 | 9.0 | 0.00 | 0.00 | 0.00 | 75 | 1014.6 |
| 20260508072036 | 65 | 122 | 1.0 | 9.0 | 0.00 | 0.00 | 0.00 | 74 | 1014.8 |
| 20260508071548 | 65 | 0 | 4.0 | 9.0 | 0.00 | 0.00 | 0.00 | 74 | 1015.1 |
| 20260508071033 | 65 | 81 | 2.0 | 6.0 | 0.00 | 0.00 | 0.00 | 75 | 1014.9 |
| 20260508070533 | 65 | 99 | 2.0 | 3.0 | 0.00 | 0.00 | 0.00 | 75 | 1014.7 |
| 20260508070044 | 65 | 83 | 0.0 | 2.0 | 0.00 | 0.00 | 0.00 | 74 | 1015.0 |
| 20260508065533 | 65 | 0 | 0.0 | 2.0 | 0.00 | 0.00 | 0.00 | 74 | 1015.0 |
| 20260508065033 | 65 | 0 | 0.0 | 2.0 | 0.00 | 0.00 | 0.00 | 74 | 1014.9 |
| 20260508064551 | 65 | 0 | 0.0 | 2.0 | 0.00 | 0.00 | 0.00 | 74 | 1014.9 |
| 20260508064034 | 65 | 0 | 0.0 | 1.0 | 0.00 | 0.00 | 0.00 | 74 | 1015.0 |
| 20260508063534 | 65 | 83 | 0.0 | 1.0 | 0.00 | 0.00 | 0.00 | 74 | 1015.0 |
| 20260508063047 | 65 | 0 | 0.0 | 1.0 | 0.00 | 0.00 | 0.00 | 73 | 1015.0 |
| 20260508062533 | 65 | 0 | 0.0 | 1.0 | 0.00 | 0.00 | 0.00 | 73 | 1015.1 |
| 20260508062033 | 65 | 0 | 0.0 | 2.0 | 0.00 | 0.00 | 0.00 | 73 | 1015.2 |
| 20260508061554 | 65 | 0 | 0.0 | 3.0 | 0.00 | 0.00 | 0.00 | 73 | 1015.2 |
| 20260508061034 | 65 | 83 | 0.0 | 3.0 | 0.00 | 0.00 | 0.00 | 73 | 1014.9 |
| 20260508060533 | 65 | 83 | 1.0 | 4.0 | 0.00 | 0.00 | 0.00 | 73 | 1014.7 |
| 20260508060047 | 65 | 0 | 0.0 | 6.0 | 0.00 | 0.00 | 0.00 | 73 | 1014.7 |
| 20260508055534 | 65 | 70 | 1.0 | 6.0 | 0.00 | 0.00 | 0.00 | 72 | 1014.6 |
| 20260508055034 | 65 | 66 | 3.0 | 8.0 | 0.00 | 0.00 | 0.00 | 72 | 1014.4 |
| 20260508054544 | 65 | 137 | 2.0 | 10.0 | 0.00 | 0.00 | 0.00 | 72 | 1014.4 |
| 20260508054035 | 65 | 54 | 4.0 | 10.0 | 0.00 | 0.00 | 0.00 | 72 | 1014.2 |
| 20260508053534 | 65 | 62 | 5.0 | 9.0 | 0.00 | 0.00 | 0.00 | 72 | 1013.9 |
| 20260508053048 | 65 | 69 | 4.0 | 9.0 | 0.00 | 0.00 | 0.00 | 73 | 1014.1 |
| 20260508052534 | 65 | 67 | 1.0 | 6.0 | 0.00 | 0.00 | 0.00 | 73 | 1015.0 |
| 20260508052036 | 65 | 89 | 2.0 | 4.0 | 0.00 | 0.00 | 0.00 | 73 | 1014.7 |
| 20260508051553 | 65 | 0 | 0.0 | 4.0 | 0.00 | 0.00 | 0.00 | 72 | 1015.4 |
| 20260508051034 | 65 | 0 | 0.0 | 4.0 | 0.00 | 0.00 | 0.00 | 72 | 1015.8 |
| 20260508050534 | 65 | 294 | 2.0 | 4.0 | 0.00 | 0.00 | 0.00 | 71 | 1016.0 |
| 20260508050048 | 65 | 324 | 0.0 | 1.0 | 0.00 | 0.00 | 0.00 | 72 | 1016.0 |
| 20260508045533 | 65 | 0 | 0.0 | 1.0 | 0.00 | 0.00 | 0.00 | 71 | 1015.8 |
| 20260508045033 | 65 | 0 | 0.0 | 0.0 | 0.00 | 0.00 | 0.00 | 71 | 1015.7 |
| 20260508044546 | 65 | 0 | 0.0 | 3.0 | 0.00 | 0.00 | 0.00 | 71 | 1015.6 |
| 20260508044041 | 65 | 0 | 0.0 | 4.0 | 0.00 | 0.00 | 0.00 | 71 | 1015.4 |
| 20260508043533 | 65 | 318 | 1.0 | 5.0 | 0.00 | 0.00 | 0.00 | 70 | 1015.5 |
| 20260508043050 | 65 | 306 | 2.0 | 6.0 | 0.00 | 0.00 | 0.00 | 70 | 1015.6 |
| 20260508042534 | 65 | 315 | 2.0 | 7.0 | 0.00 | 0.00 | 0.00 | 70 | 1015.7 |
| 20260508042035 | 65 | 294 | 4.0 | 7.0 | 0.00 | 0.00 | 0.00 | 69 | 1015.8 |
| 20260508041550 | 65 | 303 | 2.0 | 6.0 | 0.00 | 0.00 | 0.00 | 70 | 1015.6 |
| 20260508041033 | 66 | 93 | 3.0 | 6.0 | 0.00 | 0.00 | 0.00 | 70 | 1014.8 |
| 20260508040534 | 66 | 101 | 1.0 | 8.0 | 0.00 | 0.00 | 0.00 | 69 | 1014.4 |
| 20260508040051 | 66 | 60 | 2.0 | 9.0 | 0.00 | 0.00 | 0.00 | 69 | 1014.2 |
| 20260508035535 | 66 | 95 | 4.0 | 9.0 | 0.00 | 0.00 | 0.00 | 69 | 1013.8 |
| 20260508035034 | 66 | 95 | 3.0 | 13.0 | 0.00 | 0.00 | 0.00 | 68 | 1014.0 |
| 20260508034551 | 66 | 75 | 6.0 | 13.0 | 0.00 | 0.00 | 0.00 | 68 | 1013.9 |
| 20260508034033 | 66 | 71 | 7.0 | 12.0 | 0.00 | 0.00 | 0.00 | 68 | 1013.7 |
| 20260508033533 | 66 | 85 | 5.0 | 10.0 | 0.00 | 0.00 | 0.00 | 68 | 1014.0 |
| 20260508033048 | 66 | 62 | 7.0 | 11.0 | 0.00 | 0.00 | 0.00 | 68 | 1014.2 |
| 20260508032534 | 66 | 69 | 6.0 | 11.0 | 0.00 | 0.00 | 0.00 | 69 | 1014.2 |
| 20260508032034 | 66 | 51 | 4.0 | 11.0 | 0.00 | 0.00 | 0.00 | 70 | 1014.6 |
| 20260508031551 | 66 | 24 | 3.0 | 8.0 | 0.00 | 0.00 | 0.00 | 71 | 1014.7 |
| 20260508031032 | 66 | 73 | 4.0 | 8.0 | 0.00 | 0.00 | 0.00 | 72 | 1014.6 |
| 20260508030532 | 66 | 78 | 4.0 | 8.0 | 0.00 | 0.00 | 0.00 | 73 | 1014.8 |
| 20260508030051 | 66 | 71 | 3.0 | 7.0 | 0.00 | 0.00 | 0.00 | 74 | 1015.1 |
| 20260508025537 | 67 | 60 | 2.0 | 4.0 | 0.00 | 0.00 | 0.00 | 74 | 1015.2 |
| 20260508025033 | 67 | 39 | 1.0 | 4.0 | 0.00 | 0.00 | 0.00 | 74 | 1015.4 |
| 20260508024551 | 66 | 39 | 1.0 | 4.0 | 0.00 | 0.00 | 0.00 | 74 | 1015.4 |
| 20260508024034 | 67 | 10 | 1.0 | 4.0 | 0.00 | 0.00 | 0.00 | 74 | 1015.3 |
| 20260508023533 | 67 | 10 | 1.0 | 3.0 | 0.00 | 0.00 | 0.00 | 74 | 1015.3 |
| 20260508023049 | 67 | 36 | 1.0 | 3.0 | 0.00 | 0.00 | 0.00 | 74 | 1015.0 |
| 20260508022532 | 67 | 11 | 1.0 | 3.0 | 0.00 | 0.00 | 0.00 | 74 | 1014.8 |
| 20260508022032 | 67 | 0 | 1.0 | 3.0 | 0.00 | 0.00 | 0.00 | 73 | 1014.8 |
| 20260508021548 | 67 | 11 | 0.0 | 2.0 | 0.00 | 0.00 | 0.00 | 73 | 1015.0 |
| 20260508021031 | 67 | 11 | 1.0 | 3.0 | 0.00 | 0.00 | 0.00 | 73 | 1015.0 |
| 20260508020530 | 67 | 11 | 1.0 | 3.0 | 0.00 | 0.00 | 0.00 | 73 | 1015.0 |
| 20260508020047 | 67 | 11 | 1.0 | 3.0 | 0.00 | 0.00 | 0.00 | 72 | 1015.0 |
| 20260508015533 | 67 | 11 | 1.0 | 3.0 | 0.00 | 0.00 | 0.00 | 72 | 1014.8 |
| 20260508015034 | 67 | 11 | 1.0 | 2.0 | 0.00 | 0.00 | 0.00 | 72 | 1014.7 |
| 20260508014552 | 67 | 11 | 0.0 | 2.0 | 0.00 | 0.00 | 0.00 | 71 | 1014.8 |
| 20260508014038 | 67 | 11 | 1.0 | 2.0 | 0.00 | 0.00 | 0.00 | 70 | 1014.6 |
| 20260508013533 | 67 | 11 | 0.0 | 2.0 | 0.00 | 0.00 | 0.00 | 70 | 1014.3 |
| 20260508013046 | 67 | 0 | 1.0 | 3.0 | 0.00 | 0.00 | 0.00 | 70 | 1014.3 |
| 20260508012533 | 67 | 11 | 1.0 | 3.0 | 0.00 | 0.00 | 0.00 | 70 | 1014.4 |
| 20260508012033 | 67 | 11 | 2.0 | 4.0 | 0.00 | 0.00 | 0.00 | 69 | 1014.5 |
| 20260508011545 | 67 | 11 | 1.0 | 5.0 | 0.00 | 0.00 | 0.00 | 68 | 1014.2 |
| 20260508011034 | 67 | 30 | 2.0 | 5.0 | 0.00 | 0.00 | 0.00 | 68 | 1014.2 |
| 20260508010537 | 67 | 45 | 3.0 | 8.0 | 0.00 | 0.00 | 0.00 | 68 | 1014.1 |
| 20260508010048 | 67 | 38 | 2.0 | 8.0 | 0.00 | 0.00 | 0.00 | 67 | 1014.1 |
| 20260508005535 | 67 | 40 | 3.0 | 7.0 | 0.00 | 0.00 | 0.00 | 66 | 1014.0 |
| 20260508005032 | 67 | 11 | 3.0 | 9.0 | 0.00 | 0.00 | 0.00 | 65 | 1013.9 |
| 20260508004547 | 67 | 91 | 4.0 | 13.0 | 0.00 | 0.00 | 0.00 | 65 | 1013.3 |
| 20260508004033 | 67 | 89 | 4.0 | 16.0 | 0.00 | 0.00 | 0.00 | 65 | 1013.0 |
| 20260508003532 | 67 | 101 | 5.0 | 16.0 | 0.00 | 0.00 | 0.00 | 65 | 1012.5 |
| 20260508003059 | 68 | 128 | 10.0 | 16.0 | 0.00 | 0.00 | 0.00 | 65 | 1012.2 |
| 20260508002533 | 68 | 81 | 8.0 | 18.0 | 0.00 | 0.00 | 0.00 | 65 | 1012.1 |
| 20260508002035 | 68 | 102 | 9.0 | 18.0 | 0.00 | 0.00 | 0.00 | 65 | 1012.1 |
| 20260508001548 | 68 | 105 | 11.0 | 18.0 | 0.00 | 0.00 | 0.00 | 65 | 1012.1 |
| 20260508001034 | 68 | 76 | 9.0 | 17.0 | 0.00 | 0.00 | 0.00 | 65 | 1012.1 |
| 20260508000536 | 68 | 92 | 10.0 | 18.0 | 0.00 | 0.00 | 0.00 | 64 | 1012.2 |
| 20260508000045 | 68 | 91 | 11.0 | 18.0 | 0.00 | 0.00 | 0.00 | 64 | 1012.8 |
| 20260507235534 | 68 | 70 | 12.0 | 17.0 | 0.00 | 0.00 | 0.00 | 64 | 1013.2 |
| 20260507235032 | 68 | 99 | 8.0 | 17.0 | 0.00 | 0.00 | 0.00 | 66 | 1013.5 |
| 20260507234548 | 68 | 93 | 10.0 | 16.0 | 0.00 | 0.00 | 0.00 | 65 | 1013.6 |
| 20260507234033 | 68 | 81 | 9.0 | 16.0 | 0.00 | 0.00 | 0.00 | 65 | 1013.7 |
| 20260507233533 | 69 | 98 | 10.0 | 15.0 | 0.00 | 0.00 | 0.00 | 66 | 1013.8 |
| 20260507233048 | 69 | 84 | 9.0 | 15.0 | 0.00 | 0.00 | 0.00 | 65 | 1014.1 |
| 20260507232532 | 69 | 88 | 8.0 | 12.0 | 0.00 | 0.00 | 0.00 | 65 | 1014.2 |
| 20260507232033 | 69 | 70 | 6.0 | 12.0 | 0.00 | 0.00 | 0.00 | 66 | 1014.3 |
| 20260507231548 | 69 | 74 | 7.0 | 16.0 | 0.00 | 0.00 | 0.00 | 66 | 1014.5 |
| 20260507231033 | 69 | 52 | 8.0 | 16.0 | 0.00 | 0.00 | 0.00 | 65 | 1014.7 |
| 20260507230533 | 69 | 75 | 9.0 | 16.0 | 0.00 | 0.00 | 0.00 | 65 | 1014.7 |
| 20260507230047 | 69 | 91 | 8.0 | 16.0 | 0.00 | 0.00 | 0.00 | 66 | 1014.7 |
| 20260507225532 | 69 | 51 | 9.0 | 14.0 | 0.00 | 0.00 | 0.00 | 66 | 1014.7 |
| 20260507225031 | 69 | 67 | 8.0 | 14.0 | 0.00 | 0.00 | 0.00 | 67 | 1015.0 |
| 20260507224602 | 69 | 77 | 7.0 | 15.0 | 0.00 | 0.00 | 0.00 | 67 | 1015.2 |
| 20260507224032 | 69 | 83 | 9.0 | 15.0 | 0.00 | 0.00 | 0.00 | 67 | 1015.2 |
| 20260507223532 | 69 | 69 | 9.0 | 15.0 | 0.00 | 0.00 | 0.00 | 67 | 1015.0 |
| 20260507223052 | 69 | 72 | 9.0 | 14.0 | 0.00 | 0.00 | 0.00 | 67 | 1014.9 |
| 20260507222533 | 69 | 69 | 9.0 | 15.0 | 0.00 | 0.00 | 0.00 | 66 | 1015.2 |
| 20260507222035 | 69 | 26 | 7.0 | 15.0 | 0.00 | 0.00 | 0.00 | 68 | 1015.3 |
| 20260507221551 | 69 | 80 | 9.0 | 15.0 | 0.00 | 0.00 | 0.00 | 68 | 1015.3 |
| 20260507221032 | 69 | 65 | 7.0 | 13.0 | 0.00 | 0.00 | 0.00 | 70 | 1015.4 |
| 20260507220537 | 69 | 76 | 9.0 | 13.0 | 0.00 | 0.00 | 0.00 | 69 | 1015.6 |
| 20260507220047 | 69 | 83 | 6.0 | 13.0 | 0.00 | 0.00 | 0.00 | 71 | 1015.4 |
| 20260507215533 | 69 | 91 | 5.0 | 13.0 | 0.00 | 0.00 | 0.00 | 71 | 1015.6 |
| 20260507215033 | 69 | 54 | 9.0 | 15.0 | 0.00 | 0.00 | 0.00 | 69 | 1015.6 |
| 20260507214550 | 70 | 61 | 9.0 | 15.0 | 0.00 | 0.00 | 0.00 | 69 | 1015.6 |
| 20260507214032 | 70 | 49 | 8.0 | 15.0 | 0.00 | 0.00 | 0.00 | 70 | 1015.4 |
| 20260507213534 | 69 | 54 | 6.0 | 12.0 | 0.00 | 0.00 | 0.00 | 73 | 1015.4 |
| 20260507213046 | 69 | 24 | 5.0 | 12.0 | 0.00 | 0.00 | 0.00 | 72 | 1015.8 |
| 20260507212533 | 68 | 22 | 7.0 | 12.0 | 0.00 | 0.00 | 0.00 | 72 | 1015.4 |
| 20260507212032 | 68 | 89 | 5.0 | 11.0 | 0.00 | 0.00 | 0.00 | 72 | 1015.6 |
| 20260507211601 | 68 | 22 | 6.0 | 12.0 | 0.00 | 0.00 | 0.00 | 74 | 1015.8 |
| 20260507211032 | 68 | 60 | 7.0 | 12.0 | 0.00 | 0.00 | 0.00 | 72 | 1015.5 |
| 20260507210532 | 68 | 81 | 6.0 | 12.0 | 0.00 | 0.00 | 0.00 | 72 | 1015.9 |
| 20260507210042 | 68 | 53 | 6.0 | 12.0 | 0.00 | 0.00 | 0.00 | 73 | 1015.9 |
| 20260507205535 | 68 | 13 | 6.0 | 12.0 | 0.00 | 0.00 | 0.00 | 74 | 1016.3 |
| 20260507205037 | 68 | 49 | 3.0 | 9.0 | 0.00 | 0.00 | 0.00 | 75 | 1016.3 |
| 20260507204559 | 68 | 98 | 4.0 | 12.0 | 0.00 | 0.00 | 0.00 | 74 | 1016.2 |
| 20260507204038 | 67 | 77 | 5.0 | 12.0 | 0.00 | 0.00 | 0.00 | 74 | 1016.2 |
| 20260507203534 | 67 | 74 | 8.0 | 12.0 | 0.00 | 0.00 | 0.00 | 74 | 1016.3 |
| 20260507203047 | 67 | 59 | 7.0 | 12.0 | 0.00 | 0.00 | 0.00 | 74 | 1016.4 |
| 20260507202533 | 68 | 69 | 6.0 | 13.0 | 0.00 | 0.00 | 0.00 | 73 | 1016.4 |
| 20260507202034 | 68 | 107 | 6.0 | 18.0 | 0.00 | 0.00 | 0.00 | 73 | 1016.1 |
| 20260507201559 | 68 | 8 | 8.0 | 18.0 | 0.00 | 0.00 | 0.00 | 73 | 1015.6 |
| 20260507201038 | 68 | 70 | 13.0 | 18.0 | 0.00 | 0.00 | 0.00 | 71 | 1015.2 |
| 20260507200534 | 68 | 79 | 9.0 | 17.0 | 0.00 | 0.00 | 0.00 | 72 | 1015.3 |
| 20260507200059 | 68 | 62 | 11.0 | 16.0 | 0.00 | 0.00 | 0.00 | 71 | 1015.8 |
| 20260507195533 | 69 | 64 | 10.0 | 16.0 | 0.00 | 0.00 | 0.00 | 73 | 1016.2 |
| 20260507195034 | 68 | 48 | 7.0 | 18.0 | 0.00 | 0.00 | 0.00 | 71 | 1015.8 |
| 20260507194545 | 69 | 62 | 11.0 | 18.0 | 0.00 | 0.00 | 0.00 | 70 | 1015.8 |
| 20260507194038 | 67 | 64 | 7.0 | 13.0 | 0.00 | 0.00 | 0.00 | 77 | 1015.7 |
| 20260507193535 | 65 | 39 | 9.0 | 13.0 | 0.00 | 0.00 | 0.00 | 76 | 1015.9 |
| 20260507193048 | 65 | 55 | 5.0 | 13.0 | 0.00 | 0.00 | 0.00 | 77 | 1016.3 |
| 20260507192534 | 65 | 43 | 6.0 | 15.0 | 0.00 | 0.00 | 0.00 | 76 | 1016.3 |
| 20260507192034 | 65 | 326 | 7.0 | 15.0 | 0.00 | 0.00 | 0.00 | 76 | 1016.5 |
| 20260507191552 | 66 | 10 | 9.0 | 16.0 | 0.00 | 0.00 | 0.00 | 77 | 1016.0 |
| 20260507191032 | 65 | 87 | 9.0 | 16.0 | 0.00 | 0.00 | 0.00 | 76 | 1016.1 |
| 20260507190535 | 65 | 56 | 9.0 | 15.0 | 0.00 | 0.00 | 0.00 | 75 | 1016.7 |
| 20260507190048 | 66 | 27 | 6.0 | 15.0 | 0.00 | 0.00 | 0.00 | 75 | 1017.1 |
| 20260507185532 | 66 | 36 | 9.0 | 15.0 | 0.00 | 0.00 | 0.00 | 77 | 1016.8 |
| 20260507185033 | 66 | 40 | 6.0 | 15.0 | 0.00 | 0.00 | 0.00 | 76 | 1016.5 |
| 20260507184551 | 66 | 56 | 8.0 | 16.0 | 0.00 | 0.00 | 0.00 | 75 | 1017.1 |
| 20260507184033 | 66 | 63 | 6.0 | 19.0 | 0.00 | 0.00 | 0.00 | 76 | 1016.5 |
| 20260507183533 | 66 | 100 | 10.0 | 19.0 | 0.00 | 0.00 | 0.00 | 77 | 1016.0 |
| 20260507183043 | 65 | 83 | 12.0 | 18.0 | 0.00 | 0.00 | 0.00 | 76 | 1015.9 |
| 20260507182533 | 65 | 83 | 11.0 | 17.0 | 0.00 | 0.00 | 0.00 | 76 | 1015.8 |
| 20260507182033 | 65 | 81 | 9.0 | 17.0 | 0.00 | 0.00 | 0.00 | 77 | 1016.2 |
| 20260507181546 | 65 | 74 | 11.0 | 17.0 | 0.00 | 0.00 | 0.00 | 76 | 1016.4 |
| 20260507181033 | 65 | 61 | 9.0 | 16.0 | 0.00 | 0.00 | 0.00 | 77 | 1016.5 |
| 20260507180533 | 65 | 72 | 9.0 | 15.0 | 0.00 | 0.00 | 0.00 | 77 | 1016.6 |
| 20260507180054 | 65 | 80 | 10.0 | 15.0 | 0.00 | 0.00 | 0.00 | 77 | 1016.8 |
| 20260507175534 | 64 | 64 | 7.0 | 13.0 | 0.00 | 0.00 | 0.00 | 78 | 1017.0 |
| 20260507175032 | 64 | 44 | 7.0 | 13.0 | 0.00 | 0.00 | 0.00 | 79 | 1017.5 |
| 20260507174550 | 64 | 43 | 8.0 | 13.0 | 0.00 | 0.00 | 0.00 | 79 | 1017.4 |
| 20260507174032 | 64 | 18 | 7.0 | 13.0 | 0.00 | 0.00 | 0.00 | 79 | 1017.5 |
| 20260507173532 | 64 | 49 | 6.0 | 13.0 | 0.00 | 0.00 | 0.00 | 79 | 1017.6 |
| 20260507173047 | 64 | 49 | 7.0 | 13.0 | 0.00 | 0.00 | 0.00 | 79 | 1017.9 |
| 20260507172532 | 64 | 51 | 4.0 | 11.0 | 0.00 | 0.00 | 0.00 | 79 | 1018.1 |
| 20260507172031 | 64 | 66 | 6.0 | 14.0 | 0.00 | 0.00 | 0.00 | 79 | 1018.0 |
| 20260507171547 | 64 | 61 | 8.0 | 14.0 | 0.00 | 0.00 | 0.00 | 78 | 1017.9 |
| 20260507171032 | 64 | 25 | 6.0 | 18.0 | 0.00 | 0.00 | 0.00 | 79 | 1017.9 |
| 20260507170537 | 64 | 58 | 7.0 | 18.0 | 0.00 | 0.00 | 0.00 | 78 | 1017.7 |
| 20260507170047 | 64 | 73 | 8.0 | 15.0 | 0.00 | 0.00 | 0.00 | 79 | 1017.7 |
| 20260507165534 | 64 | 58 | 9.0 | 16.0 | 0.00 | 0.00 | 0.00 | 78 | 1017.6 |
| 20260507165034 | 64 | 66 | 7.0 | 16.0 | 0.00 | 0.00 | 0.00 | 79 | 1017.7 |
| 20260507164544 | 63 | 98 | 10.0 | 16.0 | 0.00 | 0.00 | 0.00 | 78 | 1017.6 |
| 20260507164031 | 63 | 61 | 8.0 | 15.0 | 0.00 | 0.00 | 0.00 | 79 | 1017.7 |
| 20260507163532 | 63 | 69 | 8.0 | 16.0 | 0.00 | 0.00 | 0.00 | 80 | 1017.9 |
| 20260507163052 | 63 | 66 | 9.0 | 16.0 | 0.00 | 0.00 | 0.00 | 79 | 1018.0 |
| 20260507162534 | 63 | 48 | 10.0 | 16.0 | 0.00 | 0.00 | 0.00 | 79 | 1018.0 |
| 20260507162035 | 63 | 64 | 7.0 | 18.0 | 0.00 | 0.00 | 0.00 | 80 | 1017.9 |
| 20260507161548 | 63 | 58 | 6.0 | 18.0 | 0.00 | 0.00 | 0.00 | 80 | 1017.8 |
| 20260507161032 | 63 | 49 | 10.0 | 18.0 | 0.00 | 0.00 | 0.00 | 80 | 1017.8 |
| 20260507160532 | 62 | 54 | 11.0 | 17.0 | 0.00 | 0.00 | 0.00 | 80 | 1017.8 |
| 20260507160047 | 62 | 39 | 12.0 | 17.0 | 0.00 | 0.00 | 0.00 | 80 | 1017.6 |
| 20260507155533 | 62 | 48 | 10.0 | 18.0 | 0.00 | 0.00 | 0.00 | 81 | 1017.5 |
| 20260507155031 | 62 | 98 | 10.0 | 18.0 | 0.00 | 0.00 | 0.00 | 80 | 1017.4 |
| 20260507154548 | 63 | 53 | 9.0 | 17.0 | 0.00 | 0.00 | 0.00 | 80 | 1017.5 |
| 20260507154032 | 62 | 45 | 11.0 | 17.0 | 0.00 | 0.00 | 0.00 | 81 | 1017.5 |
| 20260507153534 | 62 | 57 | 7.0 | 16.0 | 0.00 | 0.00 | 0.00 | 82 | 1017.6 |
| 20260507153046 | 62 | 74 | 10.0 | 17.0 | 0.00 | 0.00 | 0.00 | 83 | 1017.2 |
| 20260507152533 | 62 | 49 | 7.0 | 17.0 | 0.00 | 0.00 | 0.00 | 83 | 1017.3 |
| 20260507152034 | 62 | 60 | 10.0 | 17.0 | 0.00 | 0.00 | 0.00 | 83 | 1017.2 |
| 20260507151550 | 62 | 45 | 8.0 | 16.0 | 0.00 | 0.00 | 0.00 | 83 | 1017.2 |
| 20260507151034 | 62 | 17 | 8.0 | 18.0 | 0.00 | 0.00 | 0.00 | 83 | 1017.2 |
| 20260507150533 | 62 | 13 | 7.0 | 18.0 | 0.00 | 0.00 | 0.00 | 83 | 1017.3 |
| 20260507150051 | 62 | 36 | 11.0 | 18.0 | 0.00 | 0.00 | 0.00 | 83 | 1017.2 |
| 20260507145534 | 62 | 10 | 9.0 | 18.0 | 0.00 | 0.00 | 0.00 | 83 | 1017.4 |
| 20260507145033 | 62 | 24 | 10.0 | 18.0 | 0.00 | 0.00 | 0.00 | 83 | 1017.2 |
| 20260507144549 | 62 | 12 | 9.0 | 18.0 | 0.00 | 0.00 | 0.00 | 82 | 1017.3 |
| 20260507144036 | 62 | 26 | 11.0 | 20.0 | 0.00 | 0.00 | 0.00 | 82 | 1017.0 |
| 20260507143533 | 62 | 14 | 9.0 | 20.0 | 0.00 | 0.00 | 0.00 | 82 | 1017.1 |
| 20260507143048 | 62 | 31 | 8.0 | 17.0 | 0.00 | 0.00 | 0.00 | 83 | 1017.0 |
| 20260507142534 | 62 | 37 | 9.0 | 15.0 | 0.00 | 0.00 | 0.00 | 83 | 1016.7 |
| 20260507142033 | 62 | 23 | 8.0 | 20.0 | 0.00 | 0.00 | 0.00 | 83 | 1016.6 |
| 20260507141546 | 62 | 27 | 10.0 | 21.0 | 0.00 | 0.00 | 0.00 | 82 | 1016.7 |
| 20260507141033 | 62 | 41 | 14.0 | 21.0 | 0.00 | 0.00 | 0.00 | 82 | 1016.5 |
| 20260507140532 | 63 | 51 | 12.0 | 18.0 | 0.00 | 0.00 | 0.00 | 82 | 1016.4 |
| 20260507140100 | 63 | 37 | 9.0 | 17.0 | 0.00 | 0.00 | 0.00 | 82 | 1016.6 |
| 20260507135532 | 63 | 24 | 8.0 | 17.0 | 0.00 | 0.00 | 0.00 | 82 | 1016.6 |
| 20260507135033 | 63 | 68 | 8.0 | 17.0 | 0.00 | 0.00 | 0.00 | 82 | 1016.5 |
| 20260507134550 | 63 | 16 | 8.0 | 17.0 | 0.00 | 0.00 | 0.00 | 82 | 1016.8 |